Date,TemperatureHighF,TemperatureAvgF,TemperatureLowF,DewpointHighF,DewpointAvgF,DewpointLowF,HumidityHigh,HumidityAvg,HumidityLow,PressureMaxIn,PressureMinIn,WindSpeedMaxMPH,WindSpeedAvgMPH,GustSpeedMaxMPH,PrecipitationSumIn
2013-1-1,35.4,29.0,16.3,21.9,11.9,-3.2,63,49,34,30.00,29.80,20,7,32,0.00
2013-1-2,27.5,17.4,8.8,9.6,2.7,-6.4,69,52,39,30.17,29.97,15,4,23,0.00
2013-1-3,25.7,13.9,2.8,8.4,-7.9,-24.1,57,39,12,30.20,30.05,11,4,17,0.00
2013-1-4,37.6,29.1,21.2,19.0,15.2,8.4,69,56,44,30.05,29.90,16,6,28,0.00
2013-1-5,41.0,33.1,24.8,18.8,14.9,10.4,63,47,29,30.33,29.93,17,4,28,0.00
2013-1-6,42.3,31.7,24.4,23.6,20.9,13.6,85,65,44,30.30,30.02,13,3,21,0.00
2013-1-7,40.8,32.6,23.2,25.1,16.0,4.1,74,52,23,30.46,30.04,10,3,17,0.00
2013-1-8,45.7,34.8,22.8,23.8,20.5,12.7,72,57,38,30.43,30.34,14,5,24,0.00
2013-1-9,43.0,37.0,25.5,31.7,24.7,18.8,81,62,39,30.46,30.10,21,5,34,0.05
2013-1-10,46.6,39.2,30.2,23.8,18.1,14.0,61,43,28,30.60,30.14,24,7,46,0.06
2013-1-11,36.5,32.5,26.2,32.5,23.0,16.8,93,68,51,30.60,30.28,5,1,8,0.09
2013-1-12,41.7,37.7,33.6,41.1,36.7,31.9,99,96,92,30.30,30.20,5,1,8,0.02
2013-1-13,48.6,44.3,40.5,47.7,43.9,40.2,99,99,96,30.23,30.08,11,3,18,0.00
2013-1-14,57.9,47.6,36.7,51.5,38.3,20.1,99,74,32,30.34,29.95,14,5,25,0.00
2013-1-15,39.6,35.3,31.1,23.7,20.7,18.3,68,55,44,30.41,30.29,8,2,12,0.00
2013-1-16,32.7,30.5,27.1,31.2,26.5,19.2,94,86,59,30.32,29.91,6,1,9,0.00
2013-1-17,41.0,33.1,26.4,30.4,21.7,7.1,93,65,41,30.17,29.91,11,3,20,0.13
2013-1-18,26.2,20.3,14.9,8.8,-7.5,-19.7,47,29,14,30.49,30.12,15,5,27,0.00
2013-1-19,46.0,34.6,17.8,27.0,15.3,-1.2,70,46,28,30.42,29.96,20,8,30,0.00
2013-1-20,49.8,38.0,25.3,27.7,17.6,-6.6,71,46,12,30.00,29.64,24,10,41,0.06
2013-1-21,26.6,21.3,17.2,15.7,4.4,-4.3,83,50,27,30.15,29.85,14,3,22,0.00
2013-1-22,22.1,16.8,8.6,15.8,-1.8,-20.6,84,48,15,30.14,29.83,19,6,30,0.00
2013-1-23,13.5,7.5,2.8,-0.7,-15.1,-26.0,67,36,16,30.19,30.11,18,6,31,0.00
2013-1-24,19.2,8.1,-0.8,-15.0,-19.9,-29.1,46,28,11,30.28,30.13,16,7,28,0.00
2013-1-25,21.7,12.8,5.4,7.8,-17.4,-30.4,75,27,10,30.36,30.11,12,4,21,0.00
2013-1-26,24.3,14.2,7.3,7.8,-3.1,-21.0,77,50,14,30.30,30.06,12,4,21,0.00
2013-1-27,31.5,18.9,9.1,-2.2,-9.4,-21.7,55,31,10,30.52,30.29,12,4,21,0.00
2013-1-28,28.0,22.2,16.7,21.5,6.7,-7.8,88,56,23,30.50,30.08,7,1,11,0.00
2013-1-29,33.3,28.5,23.0,30.7,24.8,20.0,94,86,74,30.27,30.08,0,0,0,0.02
2013-1-30,57.4,46.5,32.2,56.9,45.9,30.7,99,98,94,30.22,29.53,19,6,34,0.18
2013-1-31,59.2,45.0,28.4,58.7,32.5,6.6,99,66,26,29.68,29.09,27,12,47,0.70
2013-2-1,31.1,25.2,18.7,9.3,0.1,-7.5,53,34,19,30.14,29.67,19,8,32,0.01
2013-2-2,30.7,21.6,14.4,10.5,-1.2,-7.2,64,37,20,30.30,30.11,13,5,21,0.00
2013-2-3,26.2,22.2,17.1,18.1,14.2,10.3,81,71,58,30.11,29.81,7,2,12,0.00
2013-2-4,27.5,21.5,17.6,11.1,3.7,-6.3,66,47,23,30.00,29.80,18,6,33,0.00
2013-2-5,29.7,22.5,18.3,17.1,8.3,1.7,79,55,36,30.08,29.99,8,2,12,0.00
2013-2-6,36.3,27.8,21.9,21.2,10.3,-10.1,82,53,22,30.36,29.98,15,4,24,0.01
2013-2-7,35.1,23.6,15.3,0.6,-8.0,-19.6,49,26,10,30.57,30.36,8,2,15,0.00
2013-2-8,24.4,20.8,15.6,18.4,12.8,0.6,84,72,38,30.52,29.69,23,8,38,0.01
2013-2-9,23.4,17.2,12.7,15.0,6.1,-7.3,84,63,40,30.27,29.67,21,10,37,0.02
2013-2-10,42.4,24.5,12.2,-0.9,-11.9,-21.1,39,22,10,30.46,30.27,13,4,20,0.00
2013-2-11,43.9,33.7,22.8,43.0,25.0,-7.6,98,74,24,30.41,29.70,11,3,23,0.19
2013-2-12,41.5,36.9,33.1,36.3,22.9,18.7,85,57,43,29.97,29.71,17,7,34,0.02
2013-2-13,45.9,35.3,29.3,19.1,16.1,10.8,59,46,25,29.95,29.78,10,3,14,0.00
2013-2-14,48.2,36.4,27.9,19.5,13.4,4.3,62,41,17,30.06,29.80,9,2,13,0.00
2013-2-15,53.8,39.4,27.3,29.5,24.9,18.2,91,59,31,30.07,29.98,12,4,20,0.00
2013-2-16,37.8,33.0,25.9,27.3,22.1,7.9,87,65,39,30.03,29.80,11,3,20,0.02
2013-2-17,25.7,19.0,12.7,14.7,-1.5,-15.6,78,43,19,29.79,29.51,22,10,42,0.01
2013-2-18,29.3,19.5,10.4,-8.8,-14.9,-24.1,39,23,10,30.16,29.78,20,9,36,0.00
2013-2-19,45.9,34.9,22.1,39.3,16.2,-14.8,91,51,18,29.97,29.41,12,3,23,0.18
2013-2-20,39.2,29.2,23.2,34.2,10.3,-3.1,85,47,23,29.60,29.38,20,9,33,0.02
2013-2-21,33.1,25.3,21.2,10.3,4.7,-0.8,57,42,25,30.02,29.58,21,8,34,0.00
2013-2-22,44.6,30.9,21.0,17.1,11.7,4.0,67,47,19,30.18,30.02,16,3,23,0.00
2013-2-23,35.4,32.0,29.7,29.2,23.1,16.7,90,70,58,30.13,29.71,8,2,14,0.00
2013-2-24,34.5,32.2,30.2,32.2,30.1,28.0,93,92,89,29.71,29.53,12,2,21,0.08
2013-2-25,41.7,33.4,26.8,34.4,28.1,24.6,93,81,62,30.05,29.71,8,1,11,0.17
2013-2-26,46.8,36.6,32.7,30.8,24.8,20.4,81,63,41,30.14,29.95,6,1,10,0.00
2013-2-27,39.9,35.4,32.2,38.5,33.0,25.1,96,91,72,29.96,29.41,13,5,22,0.99
2013-2-28,48.7,37.2,32.7,38.4,32.5,30.1,94,84,62,29.47,29.36,6,1,12,0.00
2013-3-1,43.7,36.9,33.4,31.4,24.5,19.4,84,62,44,29.51,29.36,12,4,21,0.01
2013-3-2,39.2,34.6,31.3,22.2,20.7,19.3,64,57,46,29.51,29.46,12,4,17,0.00
2013-3-3,41.9,32.1,28.6,26.4,20.9,17.0,80,64,43,29.47,29.40,13,4,17,0.00
2013-3-4,39.4,31.1,24.6,20.1,15.4,12.4,65,52,35,29.58,29.42,17,8,27,0.00
2013-3-5,47.8,35.5,27.0,26.3,18.9,15.0,67,52,31,29.88,29.58,11,4,18,0.00
2013-3-6,37.2,33.6,30.7,31.6,28.8,24.8,89,82,64,29.90,29.84,17,6,29,0.09
2013-3-7,32.4,29.7,27.9,28.0,26.2,23.3,92,87,74,29.88,29.80,18,9,37,0.00
2013-3-8,39.2,32.5,27.7,30.0,23.8,11.4,92,74,33,29.97,29.75,18,8,29,0.02
2013-3-9,57.4,40.1,29.3,24.7,10.5,-4.4,81,36,10,30.16,29.96,15,4,22,0.00
2013-3-10,52.5,37.8,27.0,27.3,23.4,18.1,85,60,28,30.21,30.10,9,2,16,0.00
2013-3-11,53.6,41.4,33.1,38.0,30.0,26.8,84,66,37,30.13,29.96,10,4,16,0.00
2013-3-12,54.7,48.1,41.7,51.8,45.2,38.0,98,90,72,29.96,29.55,14,4,24,0.40
2013-3-13,49.8,41.2,35.1,40.6,21.7,5.5,85,51,17,29.62,29.55,13,5,23,0.00
2013-3-14,36.0,28.0,19.8,18.0,4.0,-6.1,51,36,23,29.65,29.54,18,8,31,0.01
2013-3-15,39.7,26.8,16.7,24.6,6.6,-18.2,75,45,10,29.68,29.46,20,6,28,0.00
2013-3-16,40.8,31.9,25.2,23.2,3.0,-15.5,70,33,10,29.69,29.50,10,3,17,0.00
2013-3-17,37.4,29.3,23.7,9.4,-4.3,-19.6,53,27,10,30.11,29.68,18,4,26,0.00
2013-3-18,39.4,27.0,15.6,21.5,-8.3,-24.1,79,26,10,30.24,30.00,8,2,14,0.00
2013-3-19,33.4,29.8,25.9,31.2,26.7,20.0,92,88,74,30.00,29.45,15,4,26,0.07
2013-3-20,38.1,30.1,22.6,25.1,12.0,4.5,91,50,26,29.62,29.52,18,6,28,0.08
2013-3-21,42.8,29.0,22.8,22.4,10.7,-4.5,75,49,17,29.62,29.41,8,2,12,0.00
2013-3-22,39.4,30.6,23.0,14.5,8.2,-1.3,50,39,19,29.57,29.43,15,6,29,0.00
2013-3-23,40.6,33.0,25.9,16.8,9.3,0.2,60,39,19,29.59,29.49,18,8,33,0.04
2013-3-24,48.7,41.2,32.5,14.0,9.2,1.0,45,28,14,29.64,29.55,13,4,18,0.04
2013-3-25,42.6,35.2,29.7,23.5,19.1,14.1,60,52,41,29.59,29.34,15,5,26,0.00
2013-3-26,46.6,36.6,33.6,21.0,17.4,1.3,57,47,16,29.58,29.37,10,4,18,0.00
2013-3-27,52.9,45.5,33.3,23.4,10.3,-3.7,51,27,10,29.70,29.59,13,5,23,0.00
2013-3-28,50.4,41.7,34.3,29.3,23.4,15.5,80,51,26,29.85,29.70,10,3,14,0.01
2013-3-29,57.7,45.5,37.0,26.5,20.7,2.6,63,40,11,29.88,29.81,13,4,19,0.00
2013-3-30,56.7,45.0,36.7,26.1,11.2,-4.8,57,32,10,29.93,29.83,12,4,20,0.00
2013-3-31,57.6,42.7,31.5,36.4,16.2,-2.9,79,39,10,29.94,29.54,13,3,21,0.06
2013-4-1,60.6,44.1,31.8,40.3,27.8,-5.6,89,58,17,29.62,29.35,21,6,33,0.19
2013-4-2,37.9,31.3,26.6,14.0,1.6,-12.2,51,29,12,29.77,29.62,21,8,37,0.01
2013-4-3,43.2,33.8,27.3,12.7,-2.1,-16.0,49,24,10,29.98,29.75,20,9,34,0.00
2013-4-4,55.6,39.8,27.0,18.4,2.7,-8.3,46,24,10,30.11,29.73,14,6,24,0.00
2013-4-5,60.3,44.5,35.1,23.1,12.6,-3.3,60,34,10,29.74,29.35,18,7,26,0.00
2013-4-6,47.7,37.1,29.3,18.7,-5.0,-17.2,48,19,10,30.00,29.58,17,5,30,0.00
2013-4-7,55.2,41.7,28.9,35.8,13.8,-10.0,70,35,10,30.00,29.68,21,6,34,0.00
2013-4-8,71.4,53.7,42.1,38.1,29.4,9.3,84,48,10,29.77,29.65,12,4,18,0.00
2013-4-9,67.8,59.0,44.6,49.5,39.1,34.8,91,52,33,29.76,29.56,18,5,27,0.06
2013-4-10,68.0,58.9,44.6,47.5,41.9,37.7,89,57,33,29.67,29.55,7,3,18,0.19
2013-4-11,56.7,47.2,38.5,45.1,31.4,14.2,93,59,23,29.83,29.52,11,4,17,0.06
2013-4-12,38.1,35.9,34.7,33.1,31.1,26.7,92,83,63,29.84,29.48,14,4,22,0.44
2013-4-13,53.1,42.8,33.1,34.6,29.5,24.3,93,63,34,29.64,29.44,11,4,17,0.07
2013-4-14,52.0,43.7,37.2,33.1,23.2,11.3,75,47,21,29.91,29.61,15,4,27,0.00
2013-4-15,61.9,47.4,34.5,26.0,21.5,14.1,60,38,16,30.07,29.64,8,2,13,0.00
2013-4-16,65.5,51.2,37.9,47.8,36.8,25.0,85,60,31,30.07,29.77,17,6,28,0.01
2013-4-17,60.1,55.4,48.6,50.5,28.2,8.8,87,40,13,30.03,29.77,14,4,20,0.00
2013-4-18,64.2,52.4,40.1,41.6,21.6,8.0,70,33,14,30.10,29.83,13,4,24,0.00
2013-4-19,73.2,60.8,51.1,61.6,55.5,42.0,99,84,54,29.83,29.36,21,7,34,0.00
2013-4-20,63.7,51.4,39.6,61.6,32.6,11.3,97,56,17,29.92,29.33,18,7,30,0.34
2013-4-21,56.7,42.6,31.6,24.5,9.2,-5.6,56,29,10,30.34,29.92,14,4,26,0.00
2013-4-22,51.8,41.9,32.5,27.0,20.5,-0.1,70,47,14,30.40,30.25,11,4,20,0.00
2013-4-23,39.2,37.1,35.1,38.1,32.8,24.7,98,85,62,30.25,29.79,14,6,21,0.01
2013-4-24,77.4,56.2,38.7,45.3,36.7,13.2,98,60,10,29.79,29.51,14,6,24,0.00
2013-4-25,62.8,53.5,44.6,49.9,22.9,-1.2,89,40,10,29.97,29.53,16,5,27,0.02
2013-4-26,64.6,51.3,41.5,29.9,21.7,12.8,61,32,17,30.11,29.97,8,3,13,0.00
2013-4-27,70.0,52.8,36.9,33.6,24.9,8.2,74,40,10,30.10,29.96,11,2,14,0.00
2013-4-28,73.4,56.9,40.5,37.6,21.3,8.2,73,32,10,30.02,29.89,11,3,18,0.00
2013-4-29,71.1,56.7,47.3,41.4,23.7,-1.3,70,35,10,29.96,29.88,13,4,19,0.00
2013-4-30,76.8,60.8,48.2,31.1,12.9,1.2,45,18,10,30.05,29.94,7,2,11,0.00
2013-5-1,73.8,61.0,42.3,36.6,17.0,5.0,51,22,10,30.16,30.05,8,2,13,0.00
2013-5-2,83.5,61.8,47.1,38.4,28.2,13.4,58,34,10,30.17,30.01,11,2,17,0.00
2013-5-3,65.3,52.2,41.7,37.6,34.1,30.1,73,52,32,30.20,30.07,14,4,21,0.00
2013-5-4,67.3,53.6,39.4,42.7,29.8,8.3,78,46,13,30.07,29.97,11,2,17,0.00
2013-5-5,68.0,51.1,36.5,35.8,31.6,21.6,86,53,19,30.01,29.92,8,2,14,0.00
2013-5-6,80.4,58.4,39.7,45.6,33.9,13.8,89,49,10,29.97,29.82,8,2,14,0.00
2013-5-7,82.8,65.6,47.5,51.9,44.7,35.4,79,50,22,29.88,29.79,9,2,16,0.00
2013-5-8,72.1,62.0,53.8,61.6,56.4,49.7,99,82,60,29.90,29.75,11,3,21,0.47
2013-5-9,71.6,60.2,55.8,62.5,58.0,53.8,99,93,60,29.75,29.59,5,1,9,0.24
2013-5-10,82.4,67.6,52.2,60.9,51.1,38.5,99,62,24,29.67,29.60,8,2,16,0.01
2013-5-11,66.6,61.7,57.4,61.3,58.0,51.4,99,88,65,29.63,29.40,14,4,24,0.13
2013-5-12,69.1,59.4,47.5,60.2,46.8,23.6,99,68,31,29.53,29.30,15,4,24,0.05
2013-5-13,56.7,48.2,41.4,28.3,22.4,14.7,56,37,20,29.73,29.53,16,5,24,0.00
2013-5-14,57.7,48.9,41.7,30.5,23.0,13.9,61,38,19,29.75,29.68,11,3,19,0.00
2013-5-15,65.8,51.8,37.0,50.7,35.5,19.8,90,58,20,29.75,29.39,13,3,23,0.01
2013-5-16,80.8,68.9,54.0,51.1,29.9,13.7,88,32,10,29.44,29.36,21,6,33,0.02
2013-5-17,71.1,61.0,49.5,38.3,29.5,10.5,64,34,10,29.92,29.60,20,8,20,0.00
2013-5-18,73.2,56.4,43.9,42.6,37.2,16.7,80,53,12,30.00,29.87,17,4,17,0.00
2013-5-19,71.2,58.6,50.0,53.9,46.4,40.8,97,67,34,30.03,29.91,19,6,19,0.06
2013-5-20,83.1,68.1,54.7,62.4,59.1,53.9,99,76,48,29.91,29.64,23,5,23,0.02
2013-5-21,89.6,67.5,49.6,67.4,59.5,49.1,98,79,39,29.76,29.26,16,4,16,0.19
2013-5-22,81.5,61.9,49.1,68.9,57.4,48.6,99,86,61,29.77,29.57,27,4,27,0.13
2013-5-23,73.4,64.5,54.7,70.8,63.6,53.2,99,97,89,29.63,29.51,24,6,24,0.21
2013-5-24,72.3,61.5,46.6,66.8,59.0,46.3,99,92,70,29.54,29.36,23,6,23,0.54
2013-5-25,50.4,44.5,39.7,49.8,43.3,36.1,99,95,85,29.53,29.44,27,11,27,0.31
2013-5-26,57.4,47.5,37.8,38.1,35.1,31.4,93,65,39,29.81,29.43,31,13,31,0.02
2013-5-27,72.7,56.0,41.2,38.2,30.3,10.1,84,45,10,29.87,29.79,25,6,25,0.00
2013-5-28,77.7,63.5,47.1,52.9,34.4,11.9,80,38,11,29.94,29.86,16,4,16,0.00
2013-5-29,80.8,63.9,56.7,67.5,60.7,52.7,99,90,63,29.98,29.73,26,4,26,0.64
2013-5-30,88.7,75.4,62.4,69.0,65.8,62.2,99,75,45,30.02,29.94,18,7,18,0.01
2013-5-31,93.7,84.7,68.7,70.9,63.0,53.5,90,51,28,30.02,29.88,21,7,21,0.00
2013-6-1,92.5,80.3,67.3,67.9,62.6,52.9,81,57,30,29.91,29.80,21,8,21,0.00
2013-6-2,88.9,75.4,67.3,68.5,65.1,58.6,93,73,38,29.82,29.66,30,10,30,0.01
2013-6-3,80.2,69.0,58.3,67.6,61.3,39.6,99,79,46,29.78,29.69,21,5,21,0.46
2013-6-4,73.0,61.8,51.1,44.6,38.0,34.4,62,43,26,30.01,29.76,24,10,24,0.00
2013-6-5,75.9,67.1,50.7,46.9,40.9,32.2,81,41,23,30.11,30.01,17,5,17,0.00
2013-6-6,75.6,64.0,54.3,51.7,46.0,38.9,85,54,32,30.10,30.01,15,3,15,0.05
2013-6-7,57.6,54.5,51.6,57.3,53.8,51.4,99,97,85,30.02,29.71,19,5,19,1.61
2013-6-8,76.6,61.4,50.9,63.0,55.9,50.6,99,84,59,29.93,29.55,21,9,21,0.45
2013-6-9,79.7,68.5,58.5,58.0,52.7,45.5,91,61,32,30.09,29.93,19,7,19,0.00
2013-6-10,72.9,63.9,56.7,62.1,56.8,51.2,99,79,53,30.11,29.91,9,3,9,0.66
2013-6-11,63.0,57.7,54.9,60.0,56.8,54.1,99,97,88,29.91,29.50,14,4,14,0.59
2013-6-12,70.5,62.9,57.2,59.1,52.6,47.7,99,71,45,30.43,29.49,34,11,34,0.01
2013-6-13,65.3,57.4,50.5,57.5,51.9,48.9,99,82,68,29.75,29.58,10,2,10,0.86
2013-6-14,77.7,63.5,50.0,53.5,50.3,42.9,99,66,31,29.71,29.55,17,7,17,0.53
2013-6-15,78.1,64.3,59.4,50.7,44.5,30.4,65,51,18,29.88,29.71,14,5,14,0.00
2013-6-16,77.2,67.4,55.4,61.3,49.5,38.8,76,54,36,29.88,29.64,20,6,20,0.00
2013-6-17,85.1,69.7,60.6,65.0,58.4,50.8,99,71,33,29.83,29.71,35,7,35,0.28
2013-6-18,78.6,61.8,55.9,64.3,59.7,55.7,99,93,56,29.86,29.80,20,4,20,1.00
2013-6-19,80.4,65.1,53.8,56.6,46.4,27.1,99,58,17,30.07,29.83,14,5,14,0.08
2013-6-20,80.6,68.1,53.1,55.5,44.9,31.2,79,47,19,30.17,30.07,16,4,16,0.00
2013-6-21,84.4,71.4,56.5,61.3,56.2,51.9,91,62,35,30.17,30.11,16,6,16,0.00
2013-6-22,86.4,73.4,62.1,59.8,54.9,46.6,80,56,26,30.14,30.03,19,6,19,0.00
2013-6-23,89.8,76.9,63.7,69.2,62.4,53.6,81,62,44,30.08,29.93,24,8,24,0.00
2013-6-24,92.3,79.0,69.8,71.5,67.8,63.5,97,72,43,29.96,29.82,19,7,26,0.05
2013-6-25,91.4,81.8,69.1,67.0,64.8,59.9,88,59,37,29.88,29.70,18,6,18,0.01
2013-6-26,89.4,81.2,69.1,69.0,66.3,63.2,93,62,47,29.98,29.71,18,6,18,0.00
2013-6-27,75.6,68.5,63.5,70.2,66.9,63.2,99,95,79,29.97,29.86,8,2,8,0.01
2013-6-28,83.3,69.9,59.9,77.1,68.1,59.6,99,94,73,29.86,29.62,22,5,22,0.30
2013-6-29,84.4,75.2,70.0,72.5,69.2,64.5,99,83,54,29.85,29.64,23,8,23,0.00
2013-6-30,86.5,76.3,69.4,73.2,70.0,66.0,99,83,52,30.06,29.85,17,6,17,0.00
2013-7-1,81.0,73.9,70.7,76.9,72.7,70.4,99,96,80,30.20,30.06,13,4,13,0.21
2013-7-2,85.3,76.3,66.6,75.0,72.9,66.3,99,90,67,30.32,30.19,19,6,19,0.00
2013-7-3,88.0,79.3,63.7,74.1,71.0,63.4,99,77,54,30.34,30.27,21,8,21,0.00
2013-7-4,91.6,85.0,73.4,75.4,72.0,68.6,99,67,49,30.34,30.23,22,9,22,0.00
2013-7-5,93.0,85.9,75.4,74.7,71.6,66.6,92,64,43,30.30,30.17,19,8,19,0.00
2013-7-6,90.1,81.9,75.7,73.6,70.4,65.0,90,70,44,30.22,30.12,19,7,19,0.00
2013-7-7,93.2,80.4,72.3,74.5,68.8,63.7,94,69,48,30.17,30.05,14,3,14,0.00
2013-7-8,90.3,79.7,69.3,74.8,70.4,63.7,99,76,43,30.19,30.04,17,5,17,0.00
2013-7-9,78.3,69.9,65.5,71.1,67.9,65.2,99,94,75,30.22,30.16,10,3,10,0.01
2013-7-10,87.6,76.7,66.4,76.3,72.3,66.1,99,87,60,30.18,29.92,19,4,19,0.11
2013-7-11,84.0,77.7,71.6,75.9,70.8,64.8,99,81,56,30.06,29.91,12,4,13,0.13
2013-7-12,80.1,73.1,66.4,65.5,58.1,52.9,82,60,44,30.32,30.06,17,6,17,0.00
2013-7-13,72.3,66.2,62.4,70.2,62.5,53.9,99,89,64,30.42,30.32,11,4,11,0.02
2013-7-14,91.8,83.2,71.8,75.4,70.3,64.2,99,67,43,30.42,30.33,14,4,14,0.00
2013-7-15,94.3,80.2,72.0,75.9,69.9,60.8,99,74,33,30.34,30.23,14,3,14,0.00
2013-7-16,95.4,83.6,73.8,69.5,63.9,55.8,78,54,29,30.30,30.23,16,5,16,0.00
2013-7-17,93.6,82.5,73.2,75.5,68.6,59.3,87,66,36,30.31,30.14,14,4,14,0.00
2013-7-18,91.2,82.0,77.2,73.6,71.6,67.0,84,71,46,30.14,29.92,15,7,15,0.00
2013-7-19,94.5,84.0,75.7,77.8,73.0,65.3,91,71,40,29.94,29.72,27,7,27,0.00
2013-7-20,88.3,81.8,77.9,76.3,73.7,69.5,91,77,60,29.75,29.70,17,7,17,0.00
2013-7-21,88.5,79.8,69.4,66.8,60.1,50.7,84,53,28,29.96,29.82,13,4,13,0.00
2013-7-22,89.1,74.2,66.0,70.6,67.0,60.0,99,81,41,29.99,29.86,10,3,10,0.00
2013-7-23,85.8,72.2,68.0,80.5,71.3,67.7,99,97,70,29.86,29.52,18,2,18,0.79
2013-7-24,82.6,75.6,64.6,73.3,63.9,51.8,99,70,40,29.93,29.57,18,6,18,0.00
2013-7-25,64.2,59.3,57.2,58.9,52.8,44.6,99,80,61,30.07,29.93,16,6,16,0.06
2013-7-26,74.5,63.7,59.5,65.6,60.2,58.6,99,89,66,30.03,29.93,20,6,20,0.24
2013-7-27,85.3,71.8,60.1,66.9,60.9,53.2,99,73,37,30.04,29.96,13,4,13,0.00
2013-7-28,88.0,73.4,63.5,71.0,64.7,57.6,99,78,39,30.00,29.93,10,2,10,0.00
2013-7-29,88.2,75.3,66.0,70.3,62.8,54.6,99,69,38,30.03,29.28,17,4,17,0.00
2013-7-30,81.3,72.4,62.4,56.8,51.8,47.3,67,50,32,30.08,29.36,18,6,18,0.00
2013-7-31,85.6,73.2,62.1,63.5,53.3,40.2,87,54,24,30.12,29.36,11,4,11,0.00
2013-8-1,81.5,68.0,61.9,66.0,62.3,57.3,99,84,45,30.03,29.88,14,3,14,0.15
2013-8-2,82.4,71.9,63.5,69.0,60.3,49.0,99,72,33,29.90,29.81,12,3,21,0.38
2013-8-3,79.5,69.5,63.0,64.4,60.3,53.5,98,75,42,29.88,29.80,11,4,21,0.01
2013-8-4,79.7,68.3,60.1,60.4,51.5,42.2,90,58,28,29.91,29.79,14,3,23,0.02
2013-8-5,77.4,67.6,56.8,51.8,38.5,24.1,78,41,15,29.99,29.90,13,4,22,0.00
2013-8-6,84.0,73.9,52.9,54.2,41.1,32.0,85,34,20,29.99,29.92,7,2,13,0.00
2013-8-7,82.2,69.8,57.9,59.7,52.5,30.8,92,59,21,30.01,29.93,9,2,14,0.00
2013-8-8,82.6,71.8,65.1,71.4,67.3,58.1,99,86,64,29.94,29.84,9,3,18,0.05
2013-8-9,77.2,72.6,70.5,76.9,72.0,69.3,99,98,93,29.85,29.59,19,5,19,1.02
2013-8-10,81.1,72.4,64.8,71.0,56.3,41.1,99,62,26,29.85,29.64,23,8,23,0.01
2013-8-11,79.7,68.3,55.9,54.5,48.2,40.2,82,51,29,29.92,29.83,14,4,15,0.00
2013-8-12,83.7,71.5,60.4,63.0,54.0,43.7,92,59,27,29.86,29.75,14,4,14,0.00
2013-8-13,77.9,69.1,65.1,68.3,64.0,58.4,96,84,59,29.76,29.16,9,3,9,0.01
2013-8-14,73.2,65.5,58.5,65.4,48.7,41.6,96,57,33,29.81,29.51,30,11,30,0.00
2013-8-15,77.4,65.5,54.0,51.5,46.0,36.3,82,53,25,29.95,29.37,17,5,17,0.00
2013-8-16,80.1,68.0,55.0,55.6,48.1,39.4,78,52,28,30.03,29.45,14,4,14,0.00
2013-8-17,87.3,72.5,60.1,57.3,51.3,42.0,77,51,22,30.11,30.03,10,3,10,0.00
2013-8-18,84.6,70.2,59.7,60.6,54.8,42.3,87,61,26,30.10,29.40,9,2,9,0.00
2013-8-19,81.0,71.2,62.1,60.4,56.4,52.1,87,62,37,30.59,29.36,14,5,14,0.00
2013-8-20,85.8,75.2,65.5,59.1,55.5,47.4,76,53,30,29.93,29.82,14,5,14,0.00
2013-8-21,87.6,76.9,66.6,61.2,57.0,51.0,73,52,29,29.99,29.86,16,4,16,0.00
2013-8-22,84.4,74.9,66.0,69.8,64.4,59.7,95,71,49,29.88,29.67,18,6,18,0.00
2013-8-23,83.1,72.7,63.0,69.5,53.3,40.8,94,55,24,29.96,29.67,16,7,16,0.00
2013-8-24,82.4,67.0,55.9,48.6,40.1,18.9,67,43,11,30.16,29.96,15,4,15,0.00
2013-8-25,82.6,70.4,56.3,51.8,44.6,26.7,81,45,14,30.19,30.01,15,5,15,0.00
2013-8-26,79.5,71.0,64.2,67.4,57.9,51.0,96,64,45,30.02,29.72,27,7,27,0.06
2013-8-27,87.6,74.7,67.8,72.1,66.7,57.9,99,80,38,29.74,29.67,16,4,16,0.11
2013-8-28,92.5,76.1,65.3,71.4,63.9,55.8,95,70,31,29.79,29.68,10,2,10,0.02
2013-8-29,67.5,63.9,60.3,66.5,62.8,58.7,99,96,92,29.90,29.76,14,5,14,0.05
2013-8-30,84.6,70.3,59.4,68.4,62.8,58.5,99,80,44,29.86,29.67,14,6,14,0.00
2013-8-31,79.0,73.7,68.4,73.3,71.3,67.6,99,92,80,29.67,29.63,16,6,16,0.00
2013-9-1,82.6,72.7,67.8,76.9,71.7,67.5,99,97,78,29.72,29.63,19,3,19,0.80
2013-9-2,78.6,73.1,0.0,78.4,72.8,70.4,99,98,89,29.93,29.13,10,2,10,0.12
2013-9-3,81.0,71.5,63.1,71.3,65.8,54.6,99,83,60,29.99,29.88,17,4,17,0.01
2013-9-4,79.9,68.8,59.0,58.6,52.4,44.6,94,60,30,30.10,29.98,18,7,18,0.00
2013-9-5,73.2,64.3,53.6,61.8,46.4,19.1,89,58,15,30.31,30.03,16,5,16,0.00
2013-9-6,70.9,58.1,46.8,42.3,32.7,19.1,66,42,16,30.39,30.25,13,4,13,0.00
2013-9-7,79.0,64.9,52.2,52.4,41.9,30.7,65,45,19,30.25,30.03,15,6,15,0.00
2013-9-8,73.9,64.2,52.0,58.7,46.0,24.3,91,56,18,30.25,29.93,27,8,27,0.00
2013-9-9,70.2,58.2,45.7,48.3,35.8,24.9,76,47,21,30.38,29.85,14,5,14,0.00
2013-9-10,75.9,65.5,55.2,70.8,62.9,48.3,99,91,76,29.86,29.75,19,8,19,0.04
2013-9-11,94.6,81.4,69.3,77.0,71.0,63.4,99,74,41,29.80,29.67,36,7,36,0.00
2013-9-12,86.7,75.8,66.2,73.8,69.5,65.6,99,82,51,29.70,29.40,24,7,24,0.66
2013-9-13,79.0,67.9,58.1,68.1,61.9,51.6,99,83,46,29.49,29.04,21,5,21,0.07
2013-9-14,69.3,59.3,53.1,51.8,47.7,42.8,86,67,41,29.77,29.49,17,7,17,0.00
2013-9-15,70.7,59.5,48.9,49.8,43.0,29.9,89,59,23,29.87,29.76,14,4,14,0.00
2013-9-16,69.1,58.1,44.8,50.8,43.8,31.8,80,60,38,29.95,29.73,21,6,21,0.00
2013-9-17,68.2,51.0,39.4,41.3,30.2,21.1,82,49,19,30.02,29.92,15,5,15,0.00
2013-9-18,74.1,58.6,0.0,44.0,35.2,13.4,86,49,10,29.93,29.78,13,4,13,0.00
2013-9-19,80.6,65.9,51.8,47.6,39.7,21.5,66,42,14,30.15,29.74,13,4,13,0.00
2013-9-20,86.0,67.2,50.9,55.6,45.5,29.8,92,54,14,30.11,30.02,10,2,10,0.00
2013-9-21,75.9,64.6,55.2,64.9,58.5,53.9,100,82,48,30.05,29.75,21,7,21,0.00
2013-9-22,69.8,62.6,50.5,67.9,50.6,38.6,100,68,36,29.87,29.64,23,9,23,0.31
2013-9-23,64.6,52.7,44.2,40.1,33.7,27.6,74,51,27,30.03,29.87,22,8,22,0.00
2013-9-24,69.1,53.9,42.1,38.6,30.8,12.1,78,47,13,30.02,29.84,19,7,19,0.00
2013-9-25,74.7,59.8,48.6,45.8,39.2,34.8,69,48,25,30.01,29.89,14,4,14,0.00
2013-9-26,70.3,58.6,52.5,46.6,40.7,32.2,75,55,26,30.14,30.00,11,3,11,0.00
2013-9-27,66.7,57.9,52.5,49.7,46.0,41.5,87,66,42,30.28,30.14,14,4,14,0.00
2013-9-28,77.4,61.1,51.6,48.7,45.5,37.0,86,60,25,30.35,30.27,14,3,14,0.00
2013-9-29,74.3,57.5,45.3,55.9,40.2,17.9,97,63,12,30.29,30.13,11,2,11,0.00
2013-9-30,75.0,57.1,42.4,50.0,40.7,27.0,95,62,21,30.14,29.99,12,2,12,0.00
2013-10-1,79.3,65.9,50.7,51.6,44.3,31.0,84,50,20,29.99,29.88,16,5,16,0.00
2013-10-2,78.6,68.4,56.3,53.2,49.4,46.2,83,52,34,29.99,29.89,22,7,22,0.00
2013-10-3,76.8,65.9,56.1,47.2,38.7,18.9,66,41,13,30.12,30.00,13,4,13,0.00
2013-10-4,70.0,59.6,54.3,56.4,47.8,33.0,91,67,33,30.14,30.06,13,2,13,0.22
2013-10-5,73.2,62.7,57.9,59.0,55.9,51.6,100,80,48,30.15,30.07,8,2,8,0.06
2013-10-6,59.4,55.1,52.5,56.4,54.1,51.6,100,96,86,30.23,30.13,14,4,14,0.39
2013-10-7,77.4,62.4,54.3,72.5,60.4,51.9,99,94,68,30.14,29.83,29,6,29,0.28
2013-10-8,68.9,56.7,47.3,51.9,34.8,19.3,82,48,16,30.29,29.92,18,6,18,0.00
2013-10-9,64.6,51.5,42.3,42.7,35.6,29.3,87,57,30,30.11,30.00,15,5,15,0.00
2013-10-10,59.2,51.3,42.1,48.7,45.0,39.6,93,79,64,30.00,29.83,10,4,10,0.00
2013-10-11,72.3,58.0,47.7,50.2,40.8,23.2,94,58,18,29.82,29.74,14,5,14,0.00
2013-10-12,57.0,53.3,50.4,53.9,48.7,38.3,96,85,58,30.03,29.80,15,6,15,0.00
2013-10-13,60.1,51.7,44.6,48.7,45.0,40.6,96,79,57,30.08,30.01,14,4,14,0.00
2013-10-14,72.3,53.0,37.4,50.5,33.5,12.3,100,58,11,30.04,29.89,8,2,8,0.00
2013-10-15,73.8,59.1,51.3,47.3,43.7,37.1,82,59,28,29.91,29.81,10,2,10,0.00
2013-10-16,60.1,53.7,49.1,54.1,48.5,45.3,100,83,60,29.83,29.57,8,2,8,0.00
2013-10-17,74.8,62.0,51.4,59.7,53.2,45.3,100,77,38,29.57,29.38,17,5,17,0.02
2013-10-18,66.4,59.7,49.3,61.2,43.3,28.5,100,59,27,29.57,29.27,31,9,31,0.04
2013-10-19,68.4,55.0,43.5,41.6,32.6,19.8,71,46,16,29.62,29.40,18,3,18,0.00
2013-10-20,61.2,52.2,42.8,50.0,28.8,3.0,93,50,10,29.67,29.35,24,6,24,0.02
2013-10-21,68.9,54.0,41.5,37.2,25.2,8.5,64,37,10,29.76,29.64,19,5,19,0.00
2013-10-22,65.8,52.8,43.7,47.9,38.6,26.8,93,61,36,29.64,29.37,22,6,22,0.00
2013-10-23,50.4,44.9,38.1,31.5,22.7,14.7,65,43,24,29.46,29.24,15,3,15,0.00
2013-10-24,52.3,44.0,36.5,28.0,14.9,-5.4,64,36,10,29.54,29.31,27,9,27,0.00
2013-10-25,49.5,40.6,33.6,27.8,17.4,5.9,75,42,17,29.79,29.54,22,6,22,0.00
2013-10-26,54.7,43.6,32.2,26.2,16.0,-4.7,73,39,10,29.79,29.52,29,8,29,0.00
2013-10-27,53.6,46.1,39.9,29.1,20.2,5.0,58,37,14,29.71,29.44,25,7,25,0.00
2013-10-28,57.2,44.6,35.1,25.0,18.6,10.9,65,38,16,29.98,29.70,27,7,27,0.00
2013-10-29,51.8,38.5,29.8,12.8,3.3,-12.6,45,26,10,30.07,29.98,14,3,14,0.00
2013-10-30,55.4,42.4,31.6,33.3,22.7,9.3,78,47,29,30.00,29.83,14,3,14,0.00
2013-10-31,59.7,49.9,37.9,58.1,46.7,31.7,96,89,73,29.88,29.44,19,4,19,0.13
2013-11-1,67.3,62.3,55.6,61.9,54.4,47.4,97,76,53,29.44,29.13,39,15,39,0.18
2013-11-2,69.6,55.5,44.2,47.4,33.9,17.5,81,50,14,29.39,29.25,16,3,16,0.00
2013-11-3,50.2,40.6,29.3,41.2,13.5,-12.6,79,40,10,30.04,29.39,17,8,17,0.00
2013-11-4,45.9,33.1,25.5,10.6,-1.8,-15.3,47,25,10,30.31,30.04,16,4,16,0.00
2013-11-5,54.9,39.7,26.1,27.7,14.5,1.2,61,39,12,30.32,30.14,12,3,12,0.00
2013-11-6,62.1,49.9,40.1,44.5,33.6,25.9,78,56,26,30.14,29.69,22,8,22,0.00
2013-11-7,62.8,52.0,38.3,54.9,44.1,24.0,88,75,58,29.69,29.34,34,11,34,0.08
2013-11-8,46.8,37.5,29.7,27.3,14.5,3.0,65,40,18,29.73,29.47,30,8,30,0.00
2013-11-9,44.8,36.8,28.6,18.2,11.1,-3.3,57,36,14,29.84,29.65,21,5,21,0.00
2013-11-10,55.6,44.3,38.3,35.8,26.5,17.8,78,52,25,29.65,29.40,24,8,24,0.01
2013-11-11,51.3,44.9,36.9,15.9,9.4,-4.4,41,25,10,29.75,29.53,22,10,22,0.00
2013-11-12,57.0,33.4,25.0,31.1,12.6,-0.8,79,44,24,29.93,29.52,21,9,30,0.04
2013-11-13,36.0,28.9,21.7,3.9,-6.3,-19.6,45,23,10,29.92,29.78,24,8,24,0.01
2013-11-14,52.0,39.0,28.2,4.0,-4.1,-13.3,33,18,10,29.78,29.69,23,9,23,0.00
2013-11-15,61.5,47.0,35.6,9.8,-4.1,-15.4,24,12,10,29.84,29.75,19,6,19,0.00
2013-11-16,65.5,50.8,40.8,24.5,7.6,-5.6,51,20,10,29.96,29.82,11,3,11,0.00
2013-11-17,53.4,44.1,37.6,44.0,35.4,23.3,93,72,51,29.94,29.49,7,2,7,0.04
2013-11-18,64.8,53.7,45.7,59.9,36.5,17.6,100,61,17,29.50,29.21,28,11,28,0.19
2013-11-19,46.2,37.9,28.6,20.3,8.1,-1.6,40,29,16,29.91,29.33,27,12,27,0.01
2013-11-20,44.4,32.0,24.8,5.5,-3.0,-16.1,42,24,10,30.24,29.91,24,7,24,0.00
2013-11-21,49.5,36.6,23.5,25.9,5.3,-14.3,55,29,10,30.25,30.00,15,5,15,0.00
2013-11-22,47.7,44.3,40.8,45.5,38.5,25.8,92,81,55,30.00,29.47,13,4,14,0.09
2013-11-23,48.2,37.8,26.1,43.7,13.1,-10.5,87,39,12,29.78,29.44,36,14,36,0.34
2013-11-24,26.8,21.0,17.1,9.9,-15.7,-29.7,57,22,10,29.82,29.45,40,18,40,0.01
2013-11-25,33.6,18.7,14.2,-0.6,-22.2,-30.8,28,15,10,29.98,29.81,21,9,21,0.00
2013-11-26,38.8,33.7,27.5,29.4,8.8,-12.3,86,40,15,29.95,29.66,20,4,20,0.15
2013-11-27,61.2,46.5,32.9,61.2,43.9,24.5,100,91,67,29.66,28.91,27,10,27,1.46
2013-11-28,35.1,27.7,21.7,24.5,-1.5,-21.6,66,31,10,30.04,29.13,34,14,34,0.01
2013-11-29,34.5,25.5,17.2,4.2,-8.8,-24.5,46,24,10,30.34,30.04,18,6,18,0.00
2013-11-30,33.6,21.2,14.2,9.7,-9.5,-20.7,46,27,10,30.39,30.03,11,4,11,0.00
2013-12-1,35.6,33.0,27.9,34.1,26.6,10.2,94,78,47,30.02,29.65,10,3,10,0.11
2013-12-2,40.3,36.6,35.1,40.1,35.8,33.9,100,97,94,29.65,29.55,8,2,8,0.00
2013-12-3,51.3,39.0,30.6,37.9,27.3,16.5,97,68,27,29.60,29.49,16,4,16,0.00
2013-12-4,46.8,36.2,30.7,24.0,17.7,6.1,71,50,19,29.82,29.59,14,3,14,0.00
2013-12-5,54.3,40.3,34.2,54.1,33.3,17.3,100,77,44,29.83,29.56,19,3,19,0.04
2013-12-6,54.3,46.2,32.5,54.1,42.1,29.1,100,86,59,29.77,29.50,17,6,17,0.28
2013-12-7,37.9,31.8,26.8,29.9,19.9,3.5,90,63,35,30.06,29.70,17,3,17,0.12
2013-12-8,29.1,25.9,20.5,7.3,1.5,-6.5,52,35,22,30.20,30.06,10,3,10,0.00
2013-12-9,34.5,29.3,22.8,32.3,23.5,4.0,92,80,40,30.10,29.53,11,2,11,0.01
2013-12-10,34.0,29.9,22.3,30.5,19.9,1.1,91,67,35,29.62,29.42,0,0,0,0.00
2013-12-11,30.4,23.3,19.0,8.0,4.9,-0.8,60,45,28,29.83,29.62,21,6,21,0.00
2013-12-12,24.8,18.7,12.6,6.5,-11.7,-29.4,57,29,10,29.89,29.67,20,7,20,0.00
2013-12-13,28.4,20.0,13.3,5.9,-6.6,-14.3,46,30,17,29.99,29.61,24,8,24,0.00
2013-12-14,14.9,11.1,8.2,5.3,-12.5,-35.2,65,37,10,30.18,29.73,17,7,17,0.00
2013-12-15,28.0,22.1,14.5,15.3,10.0,2.8,72,60,37,29.73,29.08,24,10,24,0.00
2013-12-16,28.0,21.7,12.9,9.8,-11.1,-26.2,58,26,10,29.81,29.37,29,8,29,0.00
2013-12-17,17.2,10.4,3.7,7.9,-4.7,-15.1,66,50,30,29.86,29.56,22,6,22,0.00
2013-12-18,33.1,23.5,16.3,12.3,6.0,-1.7,70,48,24,29.70,29.50,22,8,22,0.00
2013-12-19,42.4,32.4,20.3,8.4,2.6,-11.9,56,31,10,29.74,29.59,31,8,31,0.00
2013-12-20,53.4,41.7,34.0,16.3,10.5,0.3,42,29,12,29.74,29.55,14,6,14,0.00
2013-12-21,55.9,45.4,39.7,40.3,28.6,14.9,71,52,33,29.61,29.51,14,8,14,0.00
2013-12-22,65.5,47.4,33.6,58.1,43.0,31.1,100,85,47,29.65,29.42,32,8,32,0.01
2013-12-23,40.6,34.1,31.3,40.5,32.2,27.8,100,93,69,29.73,29.58,16,4,16,0.30
2013-12-24,36.9,30.3,22.8,29.1,7.9,-12.3,78,41,16,29.83,29.68,24,8,24,0.00
2013-12-25,25.7,17.7,12.0,-8.1,-18.3,-28.9,35,20,10,30.13,29.83,27,7,27,0.00
2013-12-26,30.4,23.6,15.8,20.4,6.4,-13.7,67,49,25,30.09,29.71,19,4,19,0.00
2013-12-27,34.0,27.6,22.1,11.3,5.3,-3.0,58,39,21,29.90,29.81,18,7,18,0.00
2013-12-28,47.3,35.5,26.8,12.0,6.6,-7.3,50,32,10,29.84,29.63,21,8,21,0.00
2013-12-29,41.9,37.6,33.6,32.1,19.7,8.2,85,52,26,29.67,29.08,24,6,24,0.70
2013-12-30,40.5,30.5,15.4,29.6,5.7,-19.6,80,42,10,29.77,29.19,29,9,29,0.01
2013-12-31,25.2,17.7,10.0,2.4,-10.8,-27.2,46,30,10,29.80,29.63,29,6,29,0.00
2014-1-1,27.9,20.1,15.1,-2.1,-19.7,-27.7,39,16,10,29.98,29.79,21,6,21,0.00
2014-1-2,18.7,9.9,-0.9,4.6,-3.6,-15.8,59,53,40,29.95,29.44,33,12,33,0.00